Location: College Park
(38.9810°N, 76.9370°W)
Time: 02:24:30
(UTC-05:00)

N. Korean satellite - Visible Passes

Search period start: 18 January 2018 00:00
Search period end: 28 January 2018 00:00
Orbit: 459 x 515 km, 97.2° (Epoch: 17 January)

Date Brightness Start Highest point End Pass type
(mag) Time Alt. Az. Time Alt. Az. Time Alt. Az.
18 Jan 9.6 06:04:06 10° NE 06:06:33 18° E 06:09:00 10° SE visible
18 Jan 6.8 18:11:18 10° S 18:14:56 74° W 18:18:31 10° NNW visible
19 Jan 6.7 17:47:47 10° SSE 17:51:19 50° ENE 17:54:47 10° N visible
20 Jan 6.6 06:49:23 10° NNE 06:52:50 83° E 06:56:18 10° S visible
20 Jan 9.7 18:58:45 10° SW 19:01:13 17° W 19:03:41 10° NW visible
21 Jan 8.3 06:25:55 10° NNE 06:29:09 36° E 06:32:21 10° SSE visible
21 Jan 8.4 18:34:09 10° SSW 18:37:28 34° W 18:40:45 10° NNW visible
22 Jan 9.7 06:02:57 10° NE 06:05:22 18° E 06:07:48 10° SE visible
22 Jan 6.7 18:10:11 10° S 18:13:46 76° W 18:17:19 10° NNW visible
23 Jan 6.7 17:46:41 10° SSE 17:50:08 48° ENE 17:53:34 10° N visible
24 Jan 6.6 06:48:10 10° NNE 06:51:38 80° ESE 06:55:06 10° S visible
24 Jan 9.6 18:57:34 10° SW 19:00:02 18° W 19:02:29 10° NW visible
25 Jan 8.3 06:24:43 10° NNE 06:27:56 35° E 06:31:09 10° SSE visible
25 Jan 8.3 18:32:58 10° SSW 18:36:16 35° W 18:39:32 10° NNW visible
26 Jan 9.7 06:01:45 10° NE 06:04:09 17° E 06:06:33 10° SE visible
26 Jan 6.7 18:09:01 10° S 18:12:33 78° WSW 18:16:05 10° NNW visible
